Time,TemperatureF,DewpointF,PressureIn,WindDirection,WindDirectionDegrees,WindSpeedMPH,WindSpeedGustMPH,Humidity,HourlyPrecipIn,Conditions,Clouds,dailyrainin,SolarRadiationWatts/m^2,SoftwareType,DateUTC
2013-10-18 00:14:00,45.0,44.0,-100.00,SSW,206,0.0,1.0,97,0.00,,,0.18,0.000000,,2013-10-18 04:14:00,
2013-10-18 00:24:00,45.0,44.0,-100.00,SSW,206,0.0,1.0,97,0.00,,,0.18,0.000000,,2013-10-18 04:24:00,
2013-10-18 00:34:00,45.0,44.0,-100.00,SSW,206,0.0,1.0,97,0.00,,,0.18,0.000000,,2013-10-18 04:34:00,
2013-10-18 00:43:00,45.0,44.0,-100.00,SSW,206,0.0,1.0,97,0.00,,,0.18,0.000000,,2013-10-18 04:43:00,
2013-10-18 01:13:00,45.0,44.0,-100.00,SSW,213,0.0,0.0,98,0.00,,,0.18,0.000000,,2013-10-18 05:13:00,
2013-10-18 01:23:00,45.0,44.0,-100.00,SSW,213,0.0,0.0,98,0.00,,,0.18,0.000000,,2013-10-18 05:23:00,
2013-10-18 01:34:00,45.0,44.0,-100.00,SSW,213,0.0,0.0,98,0.00,,,0.18,0.000000,,2013-10-18 05:34:00,
2013-10-18 01:43:00,45.0,44.0,-100.00,SSW,213,0.0,0.0,98,0.00,,,0.18,0.000000,,2013-10-18 05:43:00,
2013-10-18 02:12:00,46.0,45.0,-100.00,South,184,0.0,0.0,97,0.00,,,0.18,0.000000,,2013-10-18 06:12:00,
2013-10-18 02:22:00,46.0,45.0,-100.00,South,184,0.0,0.0,97,0.00,,,0.18,0.000000,,2013-10-18 06:22:00,
2013-10-18 02:33:00,46.0,45.0,-100.00,South,184,0.0,0.0,97,0.00,,,0.18,0.000000,,2013-10-18 06:33:00,
2013-10-18 02:42:00,46.0,45.0,-100.00,South,184,0.0,0.0,97,0.00,,,0.18,0.000000,,2013-10-18 06:42:00,
2013-10-18 03:11:00,45.0,44.0,-100.00,SW,234,0.0,1.0,96,0.00,,,0.18,0.000000,,2013-10-18 07:11:00,
2013-10-18 03:22:00,45.0,44.0,-100.00,SW,234,0.0,1.0,96,0.00,,,0.18,0.000000,,2013-10-18 07:22:00,
2013-10-18 03:32:00,45.0,44.0,-100.00,SW,234,0.0,1.0,96,0.00,,,0.18,0.000000,,2013-10-18 07:32:00,
2013-10-18 03:42:00,45.0,44.0,-100.00,SW,234,0.0,1.0,96,0.00,,,0.18,0.000000,,2013-10-18 07:42:00,
2013-10-18 04:11:00,45.0,44.0,-100.00,West,265,0.0,3.0,96,0.00,,,0.18,0.000000,,2013-10-18 08:11:00,
2013-10-18 04:22:00,45.0,44.0,-100.00,West,265,0.0,3.0,96,0.00,,,0.18,0.000000,,2013-10-18 08:22:00,
2013-10-18 04:32:00,45.0,44.0,-100.00,West,265,0.0,3.0,96,0.00,,,0.18,0.000000,,2013-10-18 08:32:00,
2013-10-18 04:42:00,45.0,44.0,-100.00,West,265,0.0,3.0,96,0.00,,,0.18,0.000000,,2013-10-18 08:42:00,
2013-10-18 05:12:00,45.0,44.0,-100.00,South,180,1.0,2.0,96,0.00,,,0.18,0.000000,,2013-10-18 09:12:00,
2013-10-18 05:21:00,45.0,44.0,-100.00,South,180,1.0,2.0,96,0.00,,,0.18,0.000000,,2013-10-18 09:21:00,
2013-10-18 05:33:00,45.0,44.0,-100.00,South,180,1.0,2.0,96,0.00,,,0.18,0.000000,,2013-10-18 09:33:00,
2013-10-18 05:43:00,45.0,44.0,-100.00,South,180,1.0,2.0,96,0.00,,,0.18,0.000000,,2013-10-18 09:43:00,
2013-10-18 06:12:00,45.0,44.0,-100.00,SSW,206,0.0,2.0,97,0.00,,,0.18,0.000000,,2013-10-18 10:12:00,
2013-10-18 06:23:00,45.0,44.0,-100.00,SSW,206,0.0,2.0,97,0.00,,,0.18,0.000000,,2013-10-18 10:23:00,
2013-10-18 06:33:00,45.0,44.0,-100.00,SSW,206,0.0,2.0,97,0.00,,,0.18,0.000000,,2013-10-18 10:33:00,
2013-10-18 06:43:00,45.0,44.0,-100.00,SSW,206,0.0,2.0,97,0.00,,,0.18,0.000000,,2013-10-18 10:43:00,
2013-10-18 07:12:00,45.0,44.0,-100.00,SSW,203,1.0,2.0,97,0.00,,,0.18,0.000000,,2013-10-18 11:12:00,
2013-10-18 07:22:00,45.0,44.0,-100.00,SSW,203,1.0,2.0,97,0.00,,,0.18,0.000000,,2013-10-18 11:22:00,
2013-10-18 07:33:00,45.0,44.0,-100.00,SSW,203,1.0,2.0,97,0.00,,,0.18,0.000000,,2013-10-18 11:33:00,
2013-10-18 07:42:00,45.0,44.0,-100.00,SSW,203,1.0,2.0,97,0.00,,,0.18,0.000000,,2013-10-18 11:42:00,
2013-10-18 08:12:00,45.0,44.0,-100.00,South,186,2.0,2.0,96,0.00,,,0.18,0.000000,,2013-10-18 12:12:00,
2013-10-18 08:22:00,45.0,44.0,-100.00,South,186,2.0,2.0,96,0.00,,,0.18,0.000000,,2013-10-18 12:22:00,
2013-10-18 08:32:00,45.0,44.0,-100.00,South,186,2.0,2.0,96,0.00,,,0.18,0.000000,,2013-10-18 12:32:00,
2013-10-18 08:42:00,45.0,44.0,-100.00,South,186,2.0,2.0,96,0.00,,,0.18,0.000000,,2013-10-18 12:42:00,
2013-10-18 09:11:00,46.0,45.0,-100.00,South,185,2.0,2.0,96,0.00,,,0.10,7.000000,,2013-10-18 13:11:00,
2013-10-18 09:22:00,46.0,45.0,-100.00,South,185,2.0,2.0,96,0.00,,,0.10,7.000000,,2013-10-18 13:22:00,
2013-10-18 09:32:00,46.0,45.0,-100.00,South,185,2.0,2.0,96,0.00,,,0.10,7.000000,,2013-10-18 13:32:00,
2013-10-18 09:42:00,46.0,45.0,-100.00,South,185,2.0,2.0,96,0.00,,,0.10,7.000000,,2013-10-18 13:42:00,
2013-10-18 13:12:00,61.0,47.0,-100.00,SSW,204,3.0,9.0,60,-99.99,,,-99.99,121.000000,,2013-10-18 17:12:00,
2013-10-18 13:22:00,61.0,47.0,-100.00,SSW,204,3.0,9.0,60,-99.99,,,-99.99,121.000000,,2013-10-18 17:22:00,
2013-10-18 13:33:00,61.0,47.0,-100.00,SSW,204,3.0,9.0,60,-99.99,,,-99.99,121.000000,,2013-10-18 17:33:00,
2013-10-18 13:42:00,61.0,47.0,-100.00,SSW,204,3.0,9.0,60,-99.99,,,-99.99,121.000000,,2013-10-18 17:42:00,
2013-10-18 14:12:00,65.0,45.0,-100.00,SW,235,4.0,10.0,48,0.00,,,-99.99,403.000000,,2013-10-18 18:12:00,
2013-10-18 14:22:00,65.0,45.0,-100.00,SW,235,4.0,10.0,48,0.00,,,-99.99,403.000000,,2013-10-18 18:22:00,
2013-10-18 14:32:00,65.0,45.0,-100.00,SW,235,4.0,10.0,48,0.00,,,-99.99,403.000000,,2013-10-18 18:32:00,
2013-10-18 14:42:00,65.0,45.0,-100.00,SW,235,4.0,10.0,48,0.00,,,-99.99,403.000000,,2013-10-18 18:42:00,
2013-10-18 15:12:00,67.0,44.0,-100.00,WNW,299,3.0,9.0,44,0.00,,,-99.99,581.000000,,2013-10-18 19:12:00,
2013-10-18 15:22:00,67.0,44.0,-100.00,WNW,299,3.0,9.0,44,0.00,,,-99.99,581.000000,,2013-10-18 19:22:00,
2013-10-18 15:32:00,67.0,44.0,-100.00,WNW,299,3.0,9.0,44,0.00,,,-99.99,581.000000,,2013-10-18 19:32:00,
2013-10-18 15:42:00,67.0,44.0,-100.00,WNW,299,3.0,9.0,44,0.00,,,-99.99,581.000000,,2013-10-18 19:42:00,
2013-10-18 16:11:00,66.0,43.0,-100.00,SW,215,3.0,10.0,43,0.00,,,-99.99,356.000000,,2013-10-18 20:11:00,
2013-10-18 16:22:00,66.0,43.0,-100.00,SW,215,3.0,10.0,43,0.00,,,-99.99,356.000000,,2013-10-18 20:22:00,
2013-10-18 16:32:00,66.0,43.0,-100.00,SW,215,3.0,10.0,43,0.00,,,-99.99,356.000000,,2013-10-18 20:32:00,
2013-10-18 16:42:00,66.0,43.0,-100.00,SW,215,3.0,10.0,43,0.00,,,-99.99,356.000000,,2013-10-18 20:42:00,
2013-10-18 22:12:00,54.0,48.0,-100.00,North,1,1.0,2.0,81,-99.99,,,0.00,0.000000,,2013-10-19 02:12:00,
2013-10-18 22:22:00,54.0,48.0,-100.00,North,1,1.0,2.0,81,-99.99,,,0.00,0.000000,,2013-10-19 02:22:00,
2013-10-18 22:32:00,54.0,48.0,-100.00,North,1,1.0,2.0,81,-99.99,,,0.00,0.000000,,2013-10-19 02:32:00,
2013-10-18 22:42:00,54.0,48.0,-100.00,North,1,1.0,2.0,81,-99.99,,,0.00,0.000000,,2013-10-19 02:42:00,
2013-10-18 23:12:00,53.0,47.0,-100.00,North,356,2.0,3.0,79,0.00,,,0.00,0.000000,,2013-10-19 03:12:00,
2013-10-18 23:23:00,53.0,47.0,-100.00,North,356,2.0,3.0,79,0.00,,,0.00,0.000000,,2013-10-19 03:23:00,
2013-10-18 23:34:00,53.0,47.0,-100.00,North,356,2.0,3.0,79,0.00,,,0.00,0.000000,,2013-10-19 03:34:00,
2013-10-18 23:44:00,53.0,47.0,-100.00,North,356,2.0,3.0,79,0.00,,,0.00,0.000000,,2013-10-19 03:44:00,